^^

..:: Storico WU ::..




Lo storico viene creato da WUnderground con i dati che la stazione Meteomincio invia al loro server. L' aggiornamento viene fatto ogni 5 minuti circa, tuttavia possono esserci intervalli pił ampi a causa di errori, interruzioni di servizio o problemi nell' invio tramite FTP.


Storico stazione MeteoMincio
Giorno Sommario per Novembre 11, 2022 Unità:  Inglese    Metrico   Entrambi
Giorno Settimana Mese Anno
  Max: Min: Media:
Temperatura: 60.8 °F 44.6 °F 50.9 °F
Dew Point: 57.2 °F 42.8 °F 49.5 °F
Umidità: 98% 85% 95%
Velocità vento: 8.7mph 0mph 3.7mph
Raffica: 11.8mph - -
Direzione- - West
Pressione: 30.6 in 30.5 in -
Precipitazioni: 0.02 in    
 
 
Tabulato Dati per Novembre 11, 2022
Ora Temperatura Dew Point Pressione Direzione Velocità vento Raffica Umidità Intensità pioggia (oraria) Info solare Situazione
00:04 48.2 °F 48.2 °F 30.5 in NW 2.5 mph 3.7 mph 97% 0 in 0.00 W/m2 unknown
00:09 48.2 °F 48.2 °F 30.5 in NW 2.5 mph 3.7 mph 97% 0 in 0.00 W/m2 unknown
00:14 48.2 °F 48.2 °F 30.5 in WNW 2.5 mph 3.7 mph 97% 0 in 0.00 W/m2 unknown
00:19 48.2 °F 48.2 °F 30.5 in WNW 2.5 mph 3.7 mph 97% 0 in 0.00 W/m2 unknown
00:24 48.2 °F 48.2 °F 30.5 in WNW 1.9 mph 3.7 mph 97% 0 in 0.00 W/m2 unknown
00:29 48.2 °F 48.2 °F 30.5 in WNW 1.2 mph 3.1 mph 97% 0 in 0.00 W/m2 unknown
00:34 48.2 °F 48.2 °F 30.5 in WNW 1.9 mph 3.7 mph 97% 0 in 0.00 W/m2 unknown
00:39 48.2 °F 46.4 °F 30.5 in West 1.9 mph 3.1 mph 97% 0 in 0.00 W/m2 unknown
00:44 48.2 °F 46.4 °F 30.5 in West 1.9 mph 2.5 mph 97% 0 in 0.00 W/m2 unknown
00:49 46.4 °F 46.4 °F 30.5 in West 1.9 mph 3.7 mph 97% 0 in 0.00 W/m2 unknown
00:54 46.4 °F 46.4 °F 30.5 in West 1.9 mph 3.7 mph 97% 0 in 0.00 W/m2 unknown
00:59 48.2 °F 46.4 °F 30.5 in West 1.2 mph 3.1 mph 97% 0 in 0.00 W/m2 unknown
01:04 48.2 °F 46.4 °F 30.5 in Calm   1.9 mph 97% 0 in 0.00 W/m2 unknown
01:09 48.2 °F 46.4 °F 30.5 in Calm     97% 0 in 0.00 W/m2 unknown
01:14 48.2 °F 46.4 °F 30.5 in West 0.6 mph 1.9 mph 97% 0 in 0.00 W/m2 unknown
01:19 46.4 °F 46.4 °F 30.5 in West 1.2 mph 2.5 mph 97% 0 in 0.00 W/m2 unknown
01:24 46.4 °F 46.4 °F 30.5 in West 1.2 mph 2.5 mph 97% 0 in 0.00 W/m2 unknown
01:29 46.4 °F 46.4 °F 30.5 in WNW 1.2 mph 2.5 mph 97% 0 in 0.00 W/m2 unknown
01:34 46.4 °F 46.4 °F 30.5 in WNW 1.9 mph 3.1 mph 97% 0 in 0.00 W/m2 unknown
01:39 48.2 °F 46.4 °F 30.5 in West 1.9 mph 3.7 mph 97% 0 in 0.00 W/m2 unknown
01:44 46.4 °F 46.4 °F 30.5 in West 1.9 mph 3.1 mph 97% 0 in 0.00 W/m2 unknown
01:49 46.4 °F 44.6 °F 30.5 in West 1.2 mph 2.5 mph 97% 0 in 0.00 W/m2 unknown
01:54 46.4 °F 44.6 °F 30.5 in West 1.2 mph 2.5 mph 97% 0 in 0.00 W/m2 unknown
01:59 46.4 °F 46.4 °F 30.5 in West 1.2 mph 1.9 mph 97% 0 in 0.00 W/m2 unknown
02:04 46.4 °F 46.4 °F 30.5 in West 1.2 mph 2.5 mph 97% 0 in 0.00 W/m2 unknown
02:09 46.4 °F 46.4 °F 30.5 in West 1.2 mph 2.5 mph 97% 0 in 0.00 W/m2 unknown
02:14 46.4 °F 44.6 °F 30.5 in West 1.2 mph 2.5 mph 97% 0 in 0.00 W/m2 unknown
02:19 46.4 °F 44.6 °F 30.5 in West 1.9 mph 2.5 mph 97% 0 in 0.00 W/m2 unknown
02:24 46.4 °F 44.6 °F 30.5 in West 1.2 mph 2.5 mph 97% 0 in 0.00 W/m2 unknown
02:29 46.4 °F 44.6 °F 30.5 in WNW 1.9 mph 3.1 mph 97% 0 in 0.00 W/m2 unknown
02:34 46.4 °F 44.6 °F 30.5 in WNW 2.5 mph 3.7 mph 97% 0 in 0.00 W/m2 unknown
02:39 46.4 °F 46.4 °F 30.5 in WNW 2.5 mph 3.7 mph 97% 0 in 0.00 W/m2 unknown
02:44 46.4 °F 46.4 °F 30.5 in WNW 1.9 mph 3.1 mph 97% 0 in 0.00 W/m2 unknown
02:49 46.4 °F 44.6 °F 30.5 in WNW 2.5 mph 3.7 mph 97% 0 in 0.00 W/m2 unknown
02:54 46.4 °F 46.4 °F 30.5 in WNW 2.5 mph 3.7 mph 97% 0 in 0.00 W/m2 unknown
02:59 46.4 °F 46.4 °F 30.5 in NW 1.9 mph 3.7 mph 97% 0 in 0.00 W/m2 unknown
03:04 46.4 °F 46.4 °F 30.5 in NNW 1.9 mph 3.7 mph 97% 0 in 0.00 W/m2 unknown
03:09 46.4 °F 46.4 °F 30.5 in NNW 1.9 mph 3.7 mph 97% 0 in 0.00 W/m2 unknown
03:14 46.4 °F 46.4 °F 30.5 in NW 1.9 mph 3.1 mph 97% 0 in 0.00 W/m2 unknown
03:19 46.4 °F 46.4 °F 30.5 in NW 1.9 mph 2.5 mph 97% 0 in 0.00 W/m2 unknown
03:24 46.4 °F 46.4 °F 30.5 in NW 1.2 mph 2.5 mph 97% 0 in 0.00 W/m2 unknown
03:29 48.2 °F 46.4 °F 30.5 in NW 1.9 mph 3.7 mph 97% 0 in 0.00 W/m2 unknown
03:34 48.2 °F 46.4 °F 30.5 in NNW 1.9 mph 3.1 mph 97% 0 in 0.00 W/m2 unknown
03:39 48.2 °F 46.4 °F 30.5 in NW 1.2 mph 2.5 mph 97% 0 in 0.00 W/m2 unknown
03:44 48.2 °F 46.4 °F 30.5 in WSW 1.9 mph 2.5 mph 97% 0 in 0.00 W/m2 unknown
03:49 46.4 °F 46.4 °F 30.5 in SW 1.9 mph 3.7 mph 97% 0 in 0.00 W/m2 unknown
03:54 46.4 °F 46.4 °F 30.5 in SW 1.9 mph 3.1 mph 97% 0 in 0.00 W/m2 unknown
03:59 46.4 °F 44.6 °F 30.5 in SW 1.9 mph 3.7 mph 97% 0.01 in 0.00 W/m2 unknown
04:04 46.4 °F 44.6 °F 30.5 in SW 2.5 mph 3.7 mph 97% 0.01 in 0.00 W/m2 unknown
04:09 46.4 °F 44.6 °F 30.5 in SW 3.1 mph 3.7 mph 97% 0.01 in 0.00 W/m2 unknown
04:14 46.4 °F 44.6 °F 30.5 in SW 3.1 mph 3.7 mph 97% 0.01 in 0.00 W/m2 unknown
04:19 46.4 °F 44.6 °F 30.5 in SW 2.5 mph 3.7 mph 97% 0.01 in 0.00 W/m2 unknown
04:24 46.4 °F 44.6 °F 30.5 in SW 3.1 mph 3.7 mph 97% 0.01 in 0.00 W/m2 unknown
04:29 46.4 °F 44.6 °F 30.5 in WSW 3.7 mph 5 mph 97% 0.01 in 0.00 W/m2 unknown
04:34 44.6 °F 44.6 °F 30.5 in WSW 3.7 mph 5 mph 97% 0.01 in 0.00 W/m2 unknown
04:39 44.6 °F 44.6 °F 30.5 in SW 3.7 mph 5 mph 97% 0.01 in 0.00 W/m2 unknown
04:44 44.6 °F 44.6 °F 30.5 in SW 2.5 mph 5 mph 97% 0.01 in 0.00 W/m2 unknown
04:49 44.6 °F 44.6 °F 30.5 in SW 3.1 mph 3.7 mph 97% 0.01 in 0.00 W/m2 unknown
04:54 44.6 °F 44.6 °F 30.5 in SW 3.1 mph 3.7 mph 97% 0.01 in 0.00 W/m2 unknown
04:59 44.6 °F 44.6 °F 30.5 in SW 3.7 mph 5 mph 97% 0.01 in 0.00 W/m2 unknown
05:04 44.6 °F 44.6 °F 30.5 in WSW 3.1 mph 5 mph 97% 0.01 in 0.00 W/m2 unknown
05:09 44.6 °F 44.6 °F 30.5 in WSW 3.1 mph 3.7 mph 97% 0.01 in 0.00 W/m2 unknown
05:14 44.6 °F 44.6 °F 30.5 in WSW 3.7 mph 5 mph 97% 0.01 in 0.00 W/m2 unknown
05:19 44.6 °F 44.6 °F 30.5 in WSW 4.3 mph 6.2 mph 97% 0 in 0.00 W/m2 unknown
05:24 44.6 °F 44.6 °F 30.5 in WSW 4.3 mph 6.2 mph 97% 0 in 0.00 W/m2 unknown
05:29 44.6 °F 44.6 °F 30.5 in WSW 5 mph 6.2 mph 97% 0 in 0.00 W/m2 unknown
05:34 44.6 °F 44.6 °F 30.5 in WSW 5 mph 6.2 mph 97% 0 in 0.00 W/m2 unknown
05:39 44.6 °F 44.6 °F 30.5 in WSW 4.3 mph 6.2 mph 97% 0 in 0.00 W/m2 unknown
05:44 44.6 °F 44.6 °F 30.5 in WSW 3.1 mph 6.2 mph 97% 0 in 0.00 W/m2 unknown
05:49 44.6 °F 44.6 °F 30.5 in WSW 3.1 mph 5 mph 97% 0 in 0.00 W/m2 unknown
05:54 44.6 °F 44.6 °F 30.5 in WSW 3.7 mph 3.7 mph 97% 0 in 0.00 W/m2 unknown
05:59 44.6 °F 44.6 °F 30.5 in WSW 3.7 mph 5 mph 97% 0 in 0.00 W/m2 unknown
06:04 44.6 °F 44.6 °F 30.5 in West 3.7 mph 5 mph 97% 0 in 0.00 W/m2 unknown
06:09 44.6 °F 44.6 °F 30.5 in West 3.7 mph 5 mph 97% 0 in 0.00 W/m2 unknown
06:14 44.6 °F 44.6 °F 30.5 in West 3.1 mph 5 mph 97% 0 in 0.00 W/m2 unknown
06:19 44.6 °F 44.6 °F 30.5 in West 2.5 mph 3.7 mph 97% 0 in 0.00 W/m2 unknown
06:24 44.6 °F 44.6 °F 30.5 in West 1.9 mph 3.7 mph 97% 0 in 0.00 W/m2 unknown
06:29 44.6 °F 44.6 °F 30.5 in WSW 3.1 mph 3.7 mph 97% 0 in 0.00 W/m2 unknown
06:34 44.6 °F 44.6 °F 30.5 in WSW 3.7 mph 5 mph 97% 0 in 0.00 W/m2 unknown
06:39 44.6 °F 44.6 °F 30.5 in WSW 4.3 mph 5 mph 97% 0 in 0.00 W/m2 unknown
06:44 44.6 °F 44.6 °F 30.5 in WSW 4.3 mph 5 mph 97% 0 in 0.00 W/m2 unknown
06:49 44.6 °F 44.6 °F 30.5 in WSW 4.3 mph 6.2 mph 97% 0 in 0.00 W/m2 unknown
06:54 44.6 °F 42.8 °F 30.5 in West 5 mph 6.2 mph 97% 0 in 0.00 W/m2 unknown
06:59 44.6 °F 42.8 °F 30.5 in West 4.3 mph 5 mph 97% 0 in 0.00 W/m2 unknown
07:04 44.6 °F 42.8 °F 30.5 in West 3.7 mph 5 mph 97% 0 in 0.00 W/m2 unknown
07:09 44.6 °F 42.8 °F 30.5 in WSW 3.1 mph 5 mph 97% 0 in 0.00 W/m2 unknown
07:14 44.6 °F 42.8 °F 30.5 in West 3.1 mph 3.7 mph 97% 0 in 5.00 W/m2 unknown
07:19 44.6 °F 42.8 °F 30.5 in West 3.1 mph 3.7 mph 97% 0 in 9.00 W/m2 unknown
07:24 44.6 °F 44.6 °F 30.5 in West 3.7 mph 5 mph 97% 0 in 11.00 W/m2 unknown
07:29 44.6 °F 44.6 °F 30.5 in West 4.3 mph 5 mph 98% 0 in 11.00 W/m2 unknown
07:34 46.4 °F 44.6 °F 30.5 in West 5 mph 5 mph 98% 0 in 16.00 W/m2 unknown
07:39 44.6 °F 44.6 °F 30.5 in West 3.7 mph 5 mph 98% 0 in 18.00 W/m2 unknown
07:44 46.4 °F 44.6 °F 30.5 in West 3.7 mph 5 mph 98% 0 in 18.00 W/m2 unknown
07:49 44.6 °F 44.6 °F 30.5 in WSW 3.1 mph 5 mph 98% 0 in 33.00 W/m2 unknown
07:54 44.6 °F 44.6 °F 30.5 in WSW 3.1 mph 5 mph 97% 0 in 46.00 W/m2 unknown
07:59 44.6 °F 44.6 °F 30.5 in WSW 3.7 mph 3.7 mph 97% 0 in 51.00 W/m2 unknown
08:04 44.6 °F 44.6 °F 30.5 in WSW 3.7 mph 5 mph 97% 0 in 58.00 W/m2 unknown
08:09 44.6 °F 44.6 °F 30.5 in WSW 3.7 mph 5 mph 97% 0 in 69.00 W/m2 unknown
08:14 44.6 °F 44.6 °F 30.5 in WSW 5 mph 6.8 mph 97% 0 in 72.00 W/m2 unknown
08:19 46.4 °F 44.6 °F 30.5 in WSW 6.2 mph 8.1 mph 98% 0 in 72.00 W/m2 unknown
08:24 46.4 °F 44.6 °F 30.5 in WSW 6.2 mph 8.1 mph 98% 0 in 81.00 W/m2 unknown
08:29 46.4 °F 44.6 °F 30.5 in WSW 5 mph 8.1 mph 97% 0 in 79.00 W/m2 unknown
08:34 46.4 °F 46.4 °F 30.5 in WSW 5.6 mph 8.1 mph 98% 0 in 88.00 W/m2 unknown
08:39 46.4 °F 46.4 °F 30.5 in WSW 6.2 mph 8.1 mph 98% 0 in 88.00 W/m2 unknown
08:44 46.4 °F 46.4 °F 30.5 in WSW 4.3 mph 6.2 mph 98% 0 in 105.00 W/m2 unknown
08:49 48.2 °F 46.4 °F 30.5 in WSW 5 mph 6.2 mph 98% 0 in 102.00 W/m2 unknown
08:54 48.2 °F 46.4 °F 30.5 in WSW 3.7 mph 6.2 mph 98% 0 in 109.00 W/m2 unknown
08:59 48.2 °F 48.2 °F 30.5 in WSW 4.3 mph 6.2 mph 98% 0 in 149.00 W/m2 unknown
09:04 48.2 °F 48.2 °F 30.5 in West 5.6 mph 8.1 mph 98% 0 in 146.00 W/m2 unknown
09:09 48.2 °F 48.2 °F 30.5 in West 6.2 mph 8.1 mph 98% 0 in 144.00 W/m2 unknown
09:14 48.2 °F 48.2 °F 30.5 in West 6.8 mph 8.1 mph 98% 0 in 197.00 W/m2 unknown
09:19 50 °F 48.2 °F 30.5 in West 6.2 mph 8.1 mph 98% 0 in 264.00 W/m2 unknown
09:24 50 °F 50 °F 30.5 in WSW 5.6 mph 8.1 mph 98% 0 in 287.00 W/m2 unknown
09:29 50 °F 50 °F 30.5 in WSW 5 mph 8.1 mph 98% 0 in 267.00 W/m2 unknown
09:34 50 °F 50 °F 30.5 in WSW 7.5 mph 9.3 mph 98% 0 in 265.00 W/m2 unknown
09:39 50 °F 50 °F 30.5 in West 7.5 mph 9.3 mph 98% 0 in 313.00 W/m2 unknown
09:44 51.8 °F 50 °F 30.5 in West 6.2 mph 9.3 mph 98% 0 in 313.00 W/m2 unknown
09:49 51.8 °F 50 °F 30.5 in West 6.8 mph 8.1 mph 98% 0 in 276.00 W/m2 unknown
09:54 51.8 °F 50 °F 30.5 in West 6.8 mph 8.1 mph 98% 0 in 185.00 W/m2 unknown
09:59 50 °F 50 °F 30.5 in WSW 6.2 mph 8.1 mph 98% 0 in 142.00 W/m2 unknown
10:04 51.8 °F 50 °F 30.5 in WSW 6.8 mph 10.6 mph 98% 0 in 188.00 W/m2 unknown
10:09 51.8 °F 50 °F 30.5 in West 6.8 mph 9.9 mph 98% 0 in 151.00 W/m2 unknown
10:14 51.8 °F 51.8 °F 30.5 in West 6.8 mph 9.3 mph 98% 0 in 246.00 W/m2 unknown
10:19 51.8 °F 51.8 °F 30.5 in West 6.8 mph 9.3 mph 98% 0 in 246.00 W/m2 unknown
10:24 51.8 °F 51.8 °F 30.5 in WSW 6.8 mph 9.9 mph 98% 0 in 223.00 W/m2 unknown
10:29 51.8 °F 51.8 °F 30.6 in West 7.5 mph 10.6 mph 98% 0 in 197.00 W/m2 unknown
10:34 51.8 °F 51.8 °F 30.6 in West 8.1 mph 10.6 mph 98% 0 in 158.00 W/m2 unknown
10:39 51.8 °F 51.8 °F 30.6 in WSW 6.8 mph 9.9 mph 98% 0 in 172.00 W/m2 unknown
10:44 51.8 °F 51.8 °F 30.6 in WSW 7.5 mph 10.6 mph 98% 0 in 195.00 W/m2 unknown
10:49 53.6 °F 51.8 °F 30.6 in WSW 6.8 mph 9.9 mph 98% 0 in 195.00 W/m2 unknown
10:54 53.6 °F 51.8 °F 30.6 in WSW 6.8 mph 9.3 mph 98% 0 in 216.00 W/m2 unknown
10:59 53.6 °F 53.6 °F 30.6 in West 6.8 mph 10.6 mph 98% 0 in 179.00 W/m2 unknown
11:04 53.6 °F 53.6 °F 30.6 in WSW 7.5 mph 9.9 mph 98% 0 in 134.00 W/m2 unknown
11:09 53.6 °F 53.6 °F 30.6 in WSW 7.5 mph 9.3 mph 98% 0 in 332.00 W/m2 unknown
11:14 53.6 °F 53.6 °F 30.6 in WSW 8.1 mph 11.8 mph 98% 0 in 429.00 W/m2 unknown
11:19 53.6 °F 53.6 °F 30.6 in WSW 7.5 mph 11.8 mph 98% 0 in 279.00 W/m2 unknown
11:24 53.6 °F 53.6 °F 30.6 in WSW 8.7 mph 11.8 mph 98% 0 in 302.00 W/m2 unknown
11:29 53.6 °F 53.6 °F 30.6 in WSW 8.7 mph 11.8 mph 97% 0 in 401.00 W/m2 unknown
11:34 55.4 °F 53.6 °F 30.6 in WSW 8.1 mph 11.8 mph 97% 0 in 403.00 W/m2 unknown
11:39 55.4 °F 53.6 °F 30.6 in WSW 8.1 mph 11.8 mph 97% 0 in 364.00 W/m2 unknown
11:44 55.4 °F 53.6 °F 30.5 in WSW 7.5 mph 11.8 mph 97% 0 in 158.00 W/m2 unknown
11:49 55.4 °F 53.6 °F 30.5 in WSW 6.8 mph 10.6 mph 97% 0 in 350.00 W/m2 unknown
11:54 55.4 °F 55.4 °F 30.5 in WSW 6.2 mph 9.9 mph 97% 0 in 371.00 W/m2 unknown
11:59 55.4 °F 55.4 °F 30.5 in WSW 7.5 mph 9.3 mph 97% 0 in 371.00 W/m2 unknown
12:04 55.4 °F 55.4 °F 30.5 in West 8.1 mph 10.6 mph 96% 0 in 302.00 W/m2 unknown
12:09 57.2 °F 55.4 °F 30.5 in West 7.5 mph 9.9 mph 96% 0 in 329.00 W/m2 unknown
12:14 57.2 °F 55.4 °F 30.5 in West 8.1 mph 10.6 mph 96% 0 in 482.00 W/m2 unknown
12:19 57.2 °F 57.2 °F 30.5 in West 8.7 mph 10.6 mph 95% 0 in 506.00 W/m2 unknown
12:24 59 °F 57.2 °F 30.5 in West 6.8 mph 9.9 mph 95% 0 in 496.00 W/m2 unknown
12:29 59 °F 57.2 °F 30.5 in West 6.8 mph 9.3 mph 93% 0 in 490.00 W/m2 unknown
12:34 59 °F 57.2 °F 30.5 in WSW 6.8 mph 9.3 mph 91% 0 in 454.00 W/m2 unknown
12:39 59 °F 57.2 °F 30.5 in WSW 6.8 mph 10.6 mph 91% 0 in 418.00 W/m2 unknown
12:44 60.8 °F 57.2 °F 30.5 in WSW 5.6 mph 9.9 mph 91% 0 in 425.00 W/m2 unknown
12:49 60.8 °F 57.2 °F 30.5 in West 6.8 mph 9.3 mph 90% 0 in 399.00 W/m2 unknown
12:54 60.8 °F 57.2 °F 30.5 in WSW 7.5 mph 9.3 mph 89% 0 in 425.00 W/m2 unknown
12:59 59 °F 55.4 °F 30.5 in West 8.1 mph 10.6 mph 88% 0 in 425.00 W/m2 unknown
13:04 59 °F 55.4 °F 30.5 in WSW 7.5 mph 9.9 mph 88% 0 in 441.00 W/m2 unknown
13:09 60.8 °F 57.2 °F 30.5 in West 7.5 mph 9.3 mph 88% 0 in 450.00 W/m2 unknown
13:14 60.8 °F 57.2 °F 30.5 in WSW 6.2 mph 10.6 mph 88% 0 in 390.00 W/m2 unknown
13:19 60.8 °F 57.2 °F 30.5 in West 6.2 mph 9.9 mph 88% 0 in 341.00 W/m2 unknown
13:24 60.8 °F 57.2 °F 30.5 in West 6.8 mph 8.1 mph 87% 0 in 304.00 W/m2 unknown
13:29 60.8 °F 57.2 °F 30.5 in WSW 6.2 mph 8.1 mph 87% 0 in 257.00 W/m2 unknown
13:34 60.8 °F 57.2 °F 30.5 in WSW 5.6 mph 8.1 mph 87% 0 in 237.00 W/m2 unknown
13:39 60.8 °F 57.2 °F 30.5 in WSW 6.2 mph 8.1 mph 87% 0 in 204.00 W/m2 unknown
13:44 60.8 °F 55.4 °F 30.5 in West 6.2 mph 9.3 mph 86% 0 in 199.00 W/m2 unknown
13:49 60.8 °F 55.4 °F 30.5 in WSW 6.8 mph 9.3 mph 86% 0 in 230.00 W/m2 unknown
13:54 60.8 °F 55.4 °F 30.5 in WSW 6.8 mph 8.7 mph 86% 0 in 230.00 W/m2 unknown
13:59 60.8 °F 55.4 °F 30.5 in WSW 6.8 mph 9.3 mph 85% 0 in 267.00 W/m2 unknown
14:04 60.8 °F 57.2 °F 30.5 in West 5.6 mph 8.7 mph 86% 0 in 258.00 W/m2 unknown
14:09 60.8 °F 57.2 °F 30.5 in West 5.6 mph 8.1 mph 86% 0 in 271.00 W/m2 unknown
14:14 60.8 °F 57.2 °F 30.5 in West 5.6 mph 8.1 mph 85% 0 in 264.00 W/m2 unknown
14:19 60.8 °F 57.2 °F 30.5 in West 5.6 mph 8.1 mph 85% 0 in 276.00 W/m2 unknown
14:24 60.8 °F 57.2 °F 30.5 in WSW 6.2 mph 9.3 mph 85% 0 in 283.00 W/m2 unknown
14:29 60.8 °F 57.2 °F 30.5 in West 6.2 mph 8.7 mph 85% 0 in 260.00 W/m2 unknown
14:34 60.8 °F 57.2 °F 30.5 in West 5.6 mph 8.1 mph 86% 0 in 287.00 W/m2 unknown
14:39 60.8 °F 57.2 °F 30.5 in WSW 5.6 mph 8.1 mph 85% 0 in 285.00 W/m2 unknown
14:44 60.8 °F 57.2 °F 30.5 in WSW 5 mph 8.1 mph 85% 0 in 258.00 W/m2 unknown
14:49 60.8 °F 57.2 °F 30.5 in West 5.6 mph 6.8 mph 85% 0 in 211.00 W/m2 unknown
14:54 60.8 °F 57.2 °F 30.5 in WNW 5 mph 6.8 mph 85% 0 in 183.00 W/m2 unknown
14:59 60.8 °F 57.2 °F 30.5 in West 5 mph 6.8 mph 86% 0 in 125.00 W/m2 unknown
15:04 60.8 °F 55.4 °F 30.5 in WNW 5 mph 6.8 mph 86% 0 in 93.00 W/m2 unknown
15:09 60.8 °F 55.4 °F 30.5 in WNW 6.2 mph 8.1 mph 87% 0 in 91.00 W/m2 unknown
15:14 60.8 °F 55.4 °F 30.5 in WNW 6.2 mph 8.1 mph 87% 0 in 95.00 W/m2 unknown
15:19 59 °F 55.4 °F 30.5 in West 4.3 mph 5 mph 88% 0 in 93.00 W/m2 unknown
15:24 59 °F 55.4 °F 30.5 in West 4.3 mph 6.2 mph 88% 0 in 90.00 W/m2 unknown
15:29 59 °F 57.2 °F 30.5 in West 5 mph 6.2 mph 89% 0 in 83.00 W/m2 unknown
15:34 59 °F 55.4 °F 30.5 in West 5 mph 6.2 mph 89% 0 in 76.00 W/m2 unknown
15:39 59 °F 55.4 °F 30.5 in West 5 mph 6.2 mph 89% 0 in 72.00 W/m2 unknown
15:44 59 °F 55.4 °F 30.5 in WNW 4.3 mph 6.2 mph 89% 0 in 65.00 W/m2 unknown
15:49 59 °F 55.4 °F 30.5 in WNW 5 mph 6.2 mph 89% 0 in 62.00 W/m2 unknown
15:54 59 °F 55.4 °F 30.5 in WNW 5 mph 6.2 mph 89% 0 in 56.00 W/m2 unknown
15:59 59 °F 55.4 °F 30.5 in WNW 5 mph 6.2 mph 89% 0 in 53.00 W/m2 unknown
16:04 59 °F 55.4 °F 30.5 in WNW 5 mph 6.2 mph 89% 0 in 46.00 W/m2 unknown
16:09 59 °F 55.4 °F 30.5 in West 3.1 mph 5 mph 89% 0 in 40.00 W/m2 unknown
16:14 59 °F 55.4 °F 30.5 in West 2.5 mph 5 mph 89% 0 in 33.00 W/m2 unknown
16:19 57.2 °F 55.4 °F 30.5 in West 3.1 mph 3.7 mph 90% 0 in 28.00 W/m2 unknown
16:24 57.2 °F 55.4 °F 30.5 in West 2.5 mph 3.7 mph 90% 0 in 23.00 W/m2 unknown
16:29 57.2 °F 55.4 °F 30.5 in West 1.9 mph 3.1 mph 90% 0 in 19.00 W/m2 unknown
16:34 57.2 °F 55.4 °F 30.5 in West 1.9 mph 3.7 mph 91% 0 in 14.00 W/m2 unknown
16:39 57.2 °F 53.6 °F 30.5 in West 1.9 mph 3.1 mph 91% 0 in 11.00 W/m2 unknown
16:44 57.2 °F 53.6 °F 30.5 in West 1.9 mph 3.1 mph 91% 0 in 7.00 W/m2 unknown
16:49 57.2 °F 53.6 °F 30.5 in West 1.9 mph 3.7 mph 92% 0 in 0.00 W/m2 unknown
16:54 55.4 °F 53.6 °F 30.5 in WNW 3.1 mph 3.7 mph 92% 0 in 0.00 W/m2 unknown
16:59 55.4 °F 53.6 °F 30.5 in WNW 3.1 mph 3.7 mph 92% 0 in 0.00 W/m2 unknown
17:04 55.4 °F 53.6 °F 30.5 in WNW 2.5 mph 3.7 mph 92% 0 in 0.00 W/m2 unknown
17:09 55.4 °F 53.6 °F 30.5 in WNW 3.1 mph 3.7 mph 92% 0 in 0.00 W/m2 unknown
17:14 55.4 °F 53.6 °F 30.5 in WNW 3.1 mph 3.7 mph 92% 0 in 0.00 W/m2 unknown
17:19 55.4 °F 53.6 °F 30.5 in WNW 3.1 mph 3.7 mph 92% 0 in 0.00 W/m2 unknown
17:24 55.4 °F 53.6 °F 30.5 in WNW 2.5 mph 3.7 mph 92% 0 in 0.00 W/m2 unknown
17:29 55.4 °F 53.6 °F 30.5 in WNW 3.1 mph 3.7 mph 93% 0 in 0.00 W/m2 unknown
17:34 55.4 °F 53.6 °F 30.5 in WNW 3.1 mph 3.7 mph 93% 0 in 0.00 W/m2 unknown
17:39 55.4 °F 53.6 °F 30.5 in WNW 3.1 mph 3.7 mph 93% 0 in 0.00 W/m2 unknown
17:44 55.4 °F 53.6 °F 30.5 in WNW 2.5 mph 3.7 mph 93% 0 in 0.00 W/m2 unknown
17:49 55.4 °F 51.8 °F 30.5 in WNW 2.5 mph 3.7 mph 93% 0 in 0.00 W/m2 unknown
17:54 53.6 °F 51.8 °F 30.5 in WNW 3.1 mph 3.7 mph 93% 0 in 0.00 W/m2 unknown
17:59 53.6 °F 51.8 °F 30.5 in WNW 2.5 mph 3.7 mph 93% 0 in 0.00 W/m2 unknown
18:04 53.6 °F 51.8 °F 30.5 in WNW 2.5 mph 3.7 mph 94% 0 in 0.00 W/m2 unknown
18:09 53.6 °F 51.8 °F 30.5 in WNW 1.9 mph 3.7 mph 94% 0 in 0.00 W/m2 unknown
18:14 53.6 °F 51.8 °F 30.5 in WNW 1.2 mph 2.5 mph 94% 0 in 0.00 W/m2 unknown
18:19 53.6 °F 51.8 °F 30.5 in WNW 1.2 mph 2.5 mph 94% 0 in 0.00 W/m2 unknown
18:24 53.6 °F 51.8 °F 30.5 in Calm   1.9 mph 94% 0 in 0.00 W/m2 unknown
18:29 53.6 °F 51.8 °F 30.5 in Calm     94% 0 in 0.00 W/m2 unknown
18:34 53.6 °F 51.8 °F 30.5 in Calm     94% 0 in 0.00 W/m2 unknown
18:39 53.6 °F 51.8 °F 30.5 in Calm     94% 0 in 0.00 W/m2 unknown
18:44 53.6 °F 51.8 °F 30.5 in Calm     94% 0 in 0.00 W/m2 unknown
18:49 53.6 °F 51.8 °F 30.5 in Calm     94% 0 in 0.00 W/m2 unknown
18:54 51.8 °F 51.8 °F 30.5 in Calm     95% 0 in 0.00 W/m2 unknown
18:59 51.8 °F 51.8 °F 30.5 in Calm     95% 0 in 0.00 W/m2 unknown
19:04 51.8 °F 51.8 °F 30.5 in Calm     95% 0 in 0.00 W/m2 unknown
19:09 51.8 °F 51.8 °F 30.5 in Calm     95% 0 in 0.00 W/m2 unknown
19:14 51.8 °F 50 °F 30.5 in WSW 1.9 mph 3.7 mph 95% 0 in 0.00 W/m2 unknown
19:19 51.8 °F 50 °F 30.5 in WSW 3.1 mph 3.7 mph 95% 0 in 0.00 W/m2 unknown
19:24 51.8 °F 50 °F 30.5 in WSW 3.1 mph 3.7 mph 95% 0 in 0.00 W/m2 unknown
19:29 51.8 °F 50 °F 30.5 in West 3.1 mph 3.7 mph 95% 0 in 0.00 W/m2 unknown
19:34 51.8 °F 50 °F 30.5 in West 3.1 mph 3.7 mph 95% 0 in 0.00 W/m2 unknown
19:39 51.8 °F 50 °F 30.5 in West 3.1 mph 3.7 mph 95% 0 in 0.00 W/m2 unknown
19:44 51.8 °F 50 °F 30.5 in WSW 3.1 mph 3.7 mph 95% 0 in 0.00 W/m2 unknown
19:49 51.8 °F 50 °F 30.5 in WSW 3.1 mph 3.7 mph 95% 0 in 0.00 W/m2 unknown
19:54 50 °F 50 °F 30.5 in WSW 2.5 mph 3.7 mph 95% 0 in 0.00 W/m2 unknown
19:59 50 °F 50 °F 30.5 in WSW 2.5 mph 3.7 mph 95% 0 in 0.00 W/m2 unknown
20:04 50 °F 48.2 °F 30.5 in WSW 2.5 mph 3.7 mph 95% 0 in 0.00 W/m2 unknown
20:09 50 °F 48.2 °F 30.5 in WSW 2.5 mph 3.7 mph 96% 0 in 0.00 W/m2 unknown
20:14 50 °F 48.2 °F 30.5 in WSW 2.5 mph 3.7 mph 96% 0 in 0.00 W/m2 unknown
20:19 50 °F 48.2 °F 30.5 in WSW 2.5 mph 3.7 mph 96% 0 in 0.00 W/m2 unknown
20:24 50 °F 48.2 °F 30.5 in West 2.5 mph 3.7 mph 96% 0 in 0.00 W/m2 unknown
20:29 50 °F 48.2 °F 30.5 in WSW 2.5 mph 3.7 mph 96% 0 in 0.00 W/m2 unknown
20:34 50 °F 48.2 °F 30.5 in West 2.5 mph 3.7 mph 96% 0 in 0.00 W/m2 unknown
20:39 50 °F 48.2 °F 30.5 in WSW 2.5 mph 3.7 mph 96% 0 in 0.00 W/m2 unknown
20:44 50 °F 48.2 °F 30.5 in WSW 1.9 mph 3.1 mph 96% 0 in 0.00 W/m2 unknown
20:49 50 °F 48.2 °F 30.5 in West 1.9 mph 2.5 mph 96% 0 in 0.00 W/m2 unknown
20:54 50 °F 48.2 °F 30.5 in West 0.6 mph 1.9 mph 96% 0 in 0.00 W/m2 unknown
20:59 48.2 °F 48.2 °F 30.5 in West 1.2 mph 2.5 mph 96% 0 in 0.00 W/m2 unknown
21:04 48.2 °F 48.2 °F 30.5 in WNW 1.2 mph 2.5 mph 96% 0 in 0.00 W/m2 unknown
21:09 48.2 °F 48.2 °F 30.5 in WNW 1.2 mph 3.7 mph 96% 0 in 0.00 W/m2 unknown
21:14 48.2 °F 48.2 °F 30.5 in WNW 1.2 mph 3.1 mph 96% 0 in 0.00 W/m2 unknown
21:19 48.2 °F 48.2 °F 30.5 in WNW 0.6 mph 1.9 mph 96% 0 in 0.00 W/m2 unknown
21:24 48.2 °F 48.2 °F 30.5 in WNW 0.6 mph 2.5 mph 96% 0 in 0.00 W/m2 unknown
21:29 48.2 °F 48.2 °F 30.5 in WNW 1.2 mph 2.5 mph 96% 0 in 0.00 W/m2 unknown
21:34 48.2 °F 48.2 °F 30.5 in West 1.9 mph 2.5 mph 96% 0 in 0.00 W/m2 unknown
21:39 48.2 °F 46.4 °F 30.5 in West 1.9 mph 3.7 mph 96% 0 in 0.00 W/m2 unknown
21:44 48.2 °F 46.4 °F 30.5 in West 2.5 mph 3.7 mph 96% 0 in 0.00 W/m2 unknown
21:49 48.2 °F 46.4 °F 30.5 in WNW 1.9 mph 3.7 mph 96% 0 in 0.00 W/m2 unknown
21:54 48.2 °F 46.4 °F 30.5 in West 1.9 mph 3.1 mph 96% 0 in 0.00 W/m2 unknown
21:59 48.2 °F 46.4 °F 30.5 in West 2.5 mph 3.7 mph 96% 0 in 0.00 W/m2 unknown
22:04 48.2 °F 46.4 °F 30.5 in WNW 1.9 mph 3.7 mph 97% 0 in 0.00 W/m2 unknown
22:09 48.2 °F 48.2 °F 30.5 in WNW 2.5 mph 3.7 mph 97% 0 in 0.00 W/m2 unknown
22:14 48.2 °F 48.2 °F 30.5 in WNW 2.5 mph 3.7 mph 97% 0 in 0.00 W/m2 unknown
22:19 48.2 °F 48.2 °F 30.5 in WNW 3.1 mph 3.7 mph 97% 0 in 0.00 W/m2 unknown
22:24 48.2 °F 48.2 °F 30.5 in WNW 3.1 mph 3.7 mph 97% 0 in 0.00 W/m2 unknown
22:29 48.2 °F 48.2 °F 30.5 in WNW 3.1 mph 3.7 mph 97% 0 in 0.00 W/m2 unknown
22:34 48.2 °F 48.2 °F 30.5 in WNW 2.5 mph 3.7 mph 97% 0 in 0.00 W/m2 unknown
22:39 48.2 °F 48.2 °F 30.5 in West 3.1 mph 5 mph 97% 0 in 0.00 W/m2 unknown
22:44 48.2 °F 48.2 °F 30.5 in West 3.1 mph 5 mph 97% 0 in 0.00 W/m2 unknown
22:49 48.2 °F 46.4 °F 30.5 in West 3.1 mph 5 mph 97% 0 in 0.00 W/m2 unknown
22:54 48.2 °F 46.4 °F 30.5 in West 3.7 mph 3.7 mph 97% 0 in 0.00 W/m2 unknown
22:59 48.2 °F 46.4 °F 30.5 in West 3.1 mph 3.7 mph 97% 0 in 0.00 W/m2 unknown
23:04 48.2 °F 46.4 °F 30.5 in West 2.5 mph 3.7 mph 97% 0.01 in 0.00 W/m2 unknown
23:09 48.2 °F 46.4 °F 30.5 in WSW 3.1 mph 3.7 mph 97% 0.01 in 0.00 W/m2 unknown
23:14 48.2 °F 46.4 °F 30.5 in WSW 3.1 mph 3.7 mph 97% 0.01 in 0.00 W/m2 unknown
23:19 46.4 °F 46.4 °F 30.5 in WSW 2.5 mph 3.7 mph 97% 0.01 in 0.00 W/m2 unknown
23:24 46.4 °F 46.4 °F 30.5 in SW 1.9 mph 3.7 mph 97% 0.01 in 0.00 W/m2 unknown
23:29 46.4 °F 46.4 °F 30.5 in SW 1.9 mph 2.5 mph 97% 0.01 in 0.00 W/m2 unknown
23:34 46.4 °F 46.4 °F 30.5 in SW 1.9 mph 2.5 mph 97% 0.01 in 0.00 W/m2 unknown
23:39 46.4 °F 46.4 °F 30.5 in WSW 1.9 mph 2.5 mph 97% 0.01 in 0.00 W/m2 unknown
23:44 46.4 °F 46.4 °F 30.5 in WSW 1.9 mph 3.1 mph 97% 0.01 in 0.00 W/m2 unknown
23:49 46.4 °F 46.4 °F 30.5 in SW 2.5 mph 3.7 mph 97% 0.01 in 0.00 W/m2 unknown
23:54 46.4 °F 44.6 °F 30.5 in SW 2.5 mph 3.7 mph 97% 0.01 in 0.00 W/m2 unknown
23:59 46.4 °F 46.4 °F 30.5 in WSW 3.1 mph 3.7 mph 97% 0.01 in 0.00 W/m2 unknown
Stazione Meteorologica MeteoMincio Rivalta s/M (MN)
Con i complimenti di Weather Underground - 2 mb



METEO PILLOLE
Il tornado più violento degli Stati Uniti
Missouri - Illinois e Indiana
Il 18 marzo 1925 un tornado percorre oltre 350 chilometri attraverso tre Stati, uccidendo 689 persone e ferendone quasi 200.
Share

Non seguire questo link o sarai bannato dal sito!